TimeEST,TemperatureF,Dew PointF,Humidity,Sea Level PressureIn,VisibilityMPH,Wind Direction,Wind SpeedMPH,Gust SpeedMPH,PrecipitationIn,Events,Conditions,WindDirDegrees,DateUTC
12:51 AM,46.9,45.0,93,29.60,1.0,NNE,9.2,-,0.22,Rain,Rain,20,2012-12-18 05:51:00
1:28 AM,46.4,46.4,100,29.58,1.0,NE,8.1,-,0.13,Rain,Light Rain,50,2012-12-18 06:28:00
1:51 AM,46.9,46.0,97,29.56,3.0,NE,9.2,-,0.13,Rain,Light Rain,40,2012-12-18 06:51:00
2:33 AM,48.2,46.4,93,29.55,1.0,ENE,6.9,-,0.16,Rain,Heavy Rain,70,2012-12-18 07:33:00
2:51 AM,48.0,46.9,96,29.54,1.0,ENE,6.9,-,0.23,Rain,Light Rain,60,2012-12-18 07:51:00
3:30 AM,46.4,46.4,100,29.53,5.0,Variable,5.8,25.3,0.08,Rain,Light Rain,0,2012-12-18 08:30:00
3:51 AM,46.9,46.0,97,29.52,7.0,North,6.9,-,0.10,Rain,Light Rain,10,2012-12-18 08:51:00
4:51 AM,46.9,46.0,97,29.49,7.0,NNE,5.8,-,0.03,,Overcast,20,2012-12-18 09:51:00
5:34 AM,46.4,46.4,100,29.50,7.0,Variable,3.5,-,N/A,,Overcast,0,2012-12-18 10:34:00
5:51 AM,46.9,46.0,97,29.51,3.0,NW,3.5,-,N/A,,Overcast,320,2012-12-18 10:51:00
6:29 AM,46.4,46.4,100,29.52,2.0,West,3.5,-,N/A,,Overcast,280,2012-12-18 11:29:00
6:51 AM,46.9,45.0,93,29.53,0.8,West,3.5,-,N/A,,Overcast,260,2012-12-18 11:51:00
7:31 AM,46.4,46.4,100,29.52,2.5,WNW,5.8,-,N/A,,Overcast,290,2012-12-18 12:31:00
7:51 AM,48.0,46.0,93,29.53,2.5,West,5.8,-,N/A,,Overcast,270,2012-12-18 12:51:00
8:14 AM,46.4,46.4,100,29.53,0.5,WSW,4.6,-,N/A,,Overcast,250,2012-12-18 13:14:00
8:51 AM,48.0,46.9,96,29.53,0.5,WSW,4.6,-,0.00,,Light Drizzle,240,2012-12-18 13:51:00
9:19 AM,48.2,46.4,93,29.54,2.0,WSW,10.4,-,0.00,,Overcast,250,2012-12-18 14:19:00
9:51 AM,48.9,46.9,93,29.54,3.0,West,11.5,-,0.00,,Overcast,260,2012-12-18 14:51:00
10:37 AM,50.0,46.4,87,29.53,9.0,WSW,10.4,-,N/A,,Mostly Cloudy,250,2012-12-18 15:37:00
10:51 AM,50.0,48.0,93,29.52,10.0,West,9.2,-,N/A,,Mostly Cloudy,260,2012-12-18 15:51:00
11:05 AM,51.8,48.2,88,29.51,10.0,West,10.4,-,N/A,,Mostly Cloudy,260,2012-12-18 16:05:00
11:51 AM,53.1,46.9,80,29.50,10.0,WSW,9.2,-,N/A,,Mostly Cloudy,240,2012-12-18 16:51:00
12:51 PM,54.0,46.0,75,29.49,10.0,West,11.5,-,N/A,,Scattered Clouds,260,2012-12-18 17:51:00
1:51 PM,55.9,45.0,67,29.48,10.0,West,12.7,-,N/A,,Scattered Clouds,270,2012-12-18 18:51:00
2:51 PM,54.0,44.1,69,29.47,10.0,WSW,10.4,-,N/A,,Scattered Clouds,250,2012-12-18 19:51:00
3:51 PM,53.1,44.1,71,29.48,10.0,West,8.1,-,0.00,,Mostly Cloudy,270,2012-12-18 20:51:00
4:00 PM,53.6,44.6,72,29.50,7.0,WNW,18.4,33.4,0.00,Rain-Thunderstorm,Thunderstorms with Small Hail,290,2012-12-18 21:00:00
4:10 PM,48.2,41.0,76,29.49,5.0,West,16.1,38.0,0.13,Rain-Thunderstorm,Light Thunderstorms and Rain,270,2012-12-18 21:10:00
4:38 PM,48.2,42.8,82,29.49,10.0,West,12.7,-,0.14,,Mostly Cloudy,260,2012-12-18 21:38:00
4:51 PM,50.0,43.0,77,29.49,10.0,WSW,11.5,-,0.14,,Mostly Cloudy,250,2012-12-18 21:51:00
5:51 PM,50.0,41.0,71,29.51,10.0,West,18.4,27.6,N/A,,Mostly Cloudy,270,2012-12-18 22:51:00
6:51 PM,48.9,39.0,69,29.53,10.0,West,19.6,25.3,N/A,,Mostly Cloudy,280,2012-12-18 23:51:00
7:51 PM,48.9,37.9,66,29.56,10.0,WNW,19.6,32.2,N/A,,Overcast,290,2012-12-19 00:51:00
8:51 PM,46.9,36.0,66,29.58,10.0,WNW,23.0,32.2,N/A,,Mostly Cloudy,300,2012-12-19 01:51:00
9:51 PM,46.0,35.1,66,29.60,10.0,WNW,17.3,29.9,N/A,,Mostly Cloudy,290,2012-12-19 02:51:00
10:51 PM,46.0,34.0,63,29.62,10.0,WNW,20.7,29.9,0.00,,Mostly Cloudy,300,2012-12-19 03:51:00
11:51 PM,45.0,33.1,63,29.63,10.0,WNW,13.8,-,N/A,,Partly Cloudy,300,2012-12-19 04:51:00